Preview of NWS' New Version of Forecast
This preview is not operational and should not be used for support decisions.
Latest weather observations around

Louisville, Bowman Field Airport (KLOU)

Using English Units (Switch to International System of Units)
Date/ Time (EDT) Wind (mph) Vis. (mi) Weather Sky Cond. Temp (°F) Rel. Humidity Wind Chill (°F) Heat Index (°F) Pressure Precip. (in)
Air Dwpt 6 hour Altimeter (inHg) Sea level (inHg) 1 hr 3 hr 6 hr
Max Min
Aug 26 00:53 SE 5 10 Cloudy OVC025 76 70     82%   77 29.97 29.95      
Aug 25 23:53 S 3 10 Mostly Cloudy BKN024 76 70     82%   77 29.98 29.96      
Aug 25 23:42 SSE 3 10 Mostly Cloudy BKN024 76 70     82%   77 29.98        
Aug 25 22:53 Calm 10 Partly Cloudy FEW033 SCT055 76 70     82%   77 29.99 29.97      
Aug 25 21:53 ESE 10 10 Cloudy SCT028 OVC037 77 69     77%   78 29.98 29.96      
Aug 25 20:53 ESE 10 10 Mostly Cloudy BKN050 81 67     62%   83 29.96 29.94      
Aug 25 19:53 E 9 10 Cloudy FEW036 BKN044 OVC060 82 66     58%   84 29.95 29.94      
Aug 25 18:53 E 7 10 Cloudy SCT045 OVC055 83 66     57%   85 29.95 29.94      
Aug 25 17:53 E 10 10 Cloudy BKN042 OVC050 83 66     57%   85 29.95 29.94      
Aug 25 16:53 E 10 10 Cloudy BKN039 OVC050 84 66     55%   86 29.97 29.95      
Aug 25 15:53 7 10 Mostly Cloudy BKN037 BKN048 83 66     57%   85 29.98 29.97      
Aug 25 14:53 E 11 10 Partly Cloudy SCT037 84 65     53%   86 30.01 29.99      
Aug 25 13:53 3 10 Clear CLR 81 63     54%   82 30.03 30.02      
Aug 25 12:53 5 10 Partly Cloudy SCT048 78 62     58%   78 30.04 30.03      
Aug 25 11:53 E 8 10 Clear CLR 76 61     60%   76 30.06 30.05      
Aug 25 10:53 E 8 10 Clear CLR 73 60     64%   73 30.07 30.06      
Aug 25 09:53 E 9 10 Clear CLR 70 59     68%     30.08 30.06      
Aug 25 08:53 E 3 10 Clear CLR 67 57     71%     30.08 30.07      
Aug 25 07:53 Calm 10 Clear CLR 64 56     75%     30.08 30.07      
Aug 25 06:53 NNE 6 10 Clear CLR 63 55     75%     30.06 30.04      
Aug 25 05:53 NE 6 10 Clear CLR 64 54     70%     30.06 30.04      
Aug 25 04:53 NE 8 10 Clear CLR 65 54     68%     30.06 30.05      
Aug 25 03:53 NE 6 10 Clear CLR 65 54     68%     30.07 30.06      
Aug 25 02:53 NE 6 10 Clear CLR 65 54     68%     30.09 30.07      
Aug 25 01:53 NE 7 10 Clear CLR 66 54     65%     30.1 30.09      
Aug 25 00:53 NE 6 10 Clear CLR 67 54     63%     30.12 30.1      
Aug 24 23:53 NE 7 10 Clear CLR 68 54     61%     30.12 30.1      
Aug 24 22:53 NE 6 10 Clear CLR 69 54     59%     30.12 30.11      
Aug 24 21:53 NE 8 10 Clear CLR 71 54     55%   70 30.12 30.11      
Aug 24 20:53 NE 7 10 Clear CLR 73 54     51%   72 30.1 30.09      
Aug 24 19:53 NE 9 10 Clear CLR 76 52     43%   75 30.09 30.08      
Aug 24 18:53 NE 10 10 Clear CLR 79 53     41%   78 30.08 30.07      
Aug 24 17:53 ENE 14 10 Clear CLR 80 53     39%   80 30.08 30.07      
Aug 24 16:53 NE 11 10 Clear CLR 81 54     39%   81 30.1 30.08      
Aug 24 15:53 NE 13 10 Clear CLR 81 54     39%   81 30.11 30.1      
Aug 24 14:53 E 13 10 Clear CLR 79 53     41%   78 30.13 30.12      
Aug 24 13:53 ENE 8 10 Clear CLR 79 54     42%   79 30.15 30.14      
Aug 24 12:53 ENE 15 10 Clear CLR 77 54     45%   77 30.16 30.15      
Aug 24 11:53 ENE 16 10 Clear CLR 75 54     48%   74 30.18 30.16      
Aug 24 10:53 ENE 13 10 Clear CLR 73 55     53%   73 30.19 30.17      
Aug 24 09:53 NE 9 10 Clear CLR 69 54     59%     30.18 30.17      
Aug 24 08:53 ENE 9 10 Clear CLR 66 54     65%     30.18 30.17      
Aug 24 07:53 NE 7 10 Clear CLR 61 53     75%     30.18 30.16      
Aug 24 06:53 NNE 8 10 Clear CLR 60 53     78%     30.17 30.16      
Aug 24 05:53 N 7 10 Clear CLR 60 54     80%     30.16 30.14      
Aug 24 04:53 NNE 5 10 Clear CLR 60 55     83%     30.16 30.14      
Aug 24 03:53 N 6 10 Clear CLR 61 55     81%     30.15 30.14      
Aug 24 02:53 NE 3 10 Clear CLR 63 55     75%     30.15 30.14      
Aug 24 01:53 NNE 3 10 Clear CLR 64 56     75%     30.15 30.14      
Aug 24 00:53 ENE 7 10 Clear CLR 66 56     70%     30.14 30.13      
Aug 23 23:53 NE 6 10 Clear CLR 67 57     71%     30.14 30.13      
Aug 23 22:53 NE 6 10 Clear CLR 67 57     71%     30.14 30.12      
Aug 23 21:53 NE 6 10 Clear CLR 69 57     65%     30.12 30.1      
Aug 23 20:53 NNE 6 10 Clear CLR 71 60     68%   71 30.1 30.09      
Aug 23 19:53 NE 9 10 Clear CLR 73 59     61%   73 30.1 30.08     0
Aug 23 18:53 ENE 9 10 Mostly Clear FEW065 74 60     62%   74 30.08 30.07      
Aug 23 17:53 ENE 7 10 Cloudy FEW033 OVC070 75 61     62%   75 30.08 30.06      
Aug 23 16:53 NE 10 10 Mostly Cloudy FEW028 BKN070 BKN120 75 62     64%   75 30.09 30.07   0  
Aug 23 16:31 ENE 14 10 Cloudy SCT022 OVC070 74 62     66%   74 30.09        
Aug 23 16:20 NNE 10 10 Cloudy BKN020 OVC070 74 64     71%   74 30.1        
Aug 23 15:53 NE 10 10 Mostly Cloudy FEW020 SCT055 BKN070 73 63     71%   73 30.1 30.09      
Aug 23 15:19 NE 9 10 Cloudy SCT018 BKN055 OVC070 71 63     76%   71 30.11        
Aug 23 15:08 NE 13 10 Cloudy FEW014 BKN020 OVC070 71 65     81%   72 30.11        
Aug 23 14:53 N 5 10 Cloudy SCT012 BKN050 OVC065 71 66     84%   72 30.11 30.09 0    
Aug 23 13:53 ENE 3 8 Light Rain BKN033 OVC060 70 65     84%     30.1 30.09 0   0
Aug 23 12:53 NE 7 10 Light Rain BKN043 OVC050 71 65     81%   72 30.1 30.08 0    
Aug 23 11:53 NNE 7 10 Cloudy FEW030 OVC036 70 65     84%     30.1 30.08 0    
Aug 23 10:53 NE 7 4 Light Rain BKN010 OVC024 70 65     84%     30.09 30.08 0 0  
Aug 23 09:53 N 8 4 Light Rain FEW010 OVC017 71 66     84%   72 30.07 30.06 0    
Aug 23 08:53 NE 10 10 Cloudy OVC011 74 68     82%   75 30.05 30.03      
Aug 23 08:29 NNE 7 10 Cloudy BKN013 OVC020 75 69     82%   76 30.05        
Aug 23 08:06 NE 7 10 Cloudy FEW009 BKN018 OVC023 75 69     82%   76 30.05        
Aug 23 07:55 NNE 6 10 Cloudy BKN012 OVC018 74 69     85%   75 30.04        
Aug 23 07:53 NNE 7 10 Cloudy BKN009 BKN014 OVC031 74 69     85%   75 30.04 30.03      
Aug 23 07:23 N 5 10 Cloudy BKN009 OVC031 74 69     85%   75 30.04        
Aug 23 07:08 N 5 10 Cloudy FEW009 BKN031 OVC060 74 69     85%   75 30.03        
Aug 23 07:00 N 5 10 Cloudy FEW009 BKN029 OVC034 74 69     85%   75 30.03        
Aug 23 06:53 N 5 10 Cloudy OVC029 74 69     85%   75 30.03 30.01      
Aug 23 06:41 N 3 10 Cloudy BKN026 OVC034 74 69     85%   75 30.02        
Aug 23 05:53 N 5 10 Cloudy FEW028 BKN037 OVC055 74 69     85%   75 30 29.98      
Aug 23 05:26 N 3 10 Cloudy BKN030 OVC037 74 69     85%   75 29.99        
Aug 23 04:53 N 3 10 Cloudy BKN029 OVC070 74 70     87%   75 29.99 29.96      
Aug 23 04:20 N 5 10 Mostly Cloudy BKN026 74 70     87%   75 29.98        
Aug 23 03:53 NNW 5 10 Partly Cloudy FEW043 SCT055 74 70     87%   75 29.98 29.96      
Aug 23 02:53 NW 3 10 Mostly Cloudy BKN031 BKN043 75 71     88%   76 29.98 29.96      
Aug 23 01:53 Calm 10 Cloudy BKN044 OVC060 75 71     88%   76 29.99 29.98      
Aug 23 00:53 Calm 10 Cloudy OVC065 76 71     85%   77 29.98 29.96      
Aug 22 23:53 NW 3 10 Partly Cloudy SCT030 76 70     82%   77 29.98 29.96      
May 15 07:53 Calm 10 Mostly Clear FEW065 75 68     79%   76 29.96 29.94      
May 15 04:53 SW 3 10 Clear CLR 75 67     76%   76 29.91 29.89      
May 14 19:53 SSW 8 10 Mostly Clear FEW070 86 65     50%   88 29.88 29.86      
May 14 18:53 SSW 10 10 Mostly Clear FEW065 88 64     45%   89 29.89 29.88      
May 14 12:53 WNW 11 10 Mostly Clear FEW055 87 66     50%   89 30.02 30      
May 14 11:53 NW 10 10 Partly Cloudy SCT065 86 66     51%   88 30.03 30.01      
May 14 00:53 S 6 10 Clear CLR 74 66     76%   75 29.99 29.97      
May 12 16:53 WSW 8 10 Clear   87 65     48%   89 30.04 30.02      
May 12 11:53 SW 9 10 Clear CLR 83 64     53%   84 30.09 30.08      
May 12 07:53 SSW 5 10 Clear CLR 73 62     68%   73 30.07 30.05      
May 12 04:53 S 7 10 Clear CLR 71 61     70%   71 30.02 30.01      
May 12 03:53 S 7 10 Clear CLR 72 61     68%   72 30.02 30      
May 12 01:53 SSW 7 10 Clear CLR 74 62     66%   74 30.01 29.99      
May 11 23:53 S 3 10 Clear CLR 75 62     64%   75 30 29.98      
May 11 16:53 SW 13 10 Clear CLR 87 61     42%   87 29.96 29.94      
Jun 12 07:53 S 5 10 Mostly Cloudy BKN070 76 69     79%   77 30.13 30.11      
Jun 12 05:53 Calm 10 Partly Cloudy SCT050 SCT070 72 66     82%   73 30.11 30.09      
Jun 11 17:53 S 9 10 Mostly Clear FEW070 86 63     46%   87 30.08 30.06      
Jun 11 06:53 Calm 10 Clear CLR 67 61     81%     30.12 30.1      
Jun 09 03:53 Calm 10 Clear CLR 57 54     89%     29.91 29.9      
Jun 09 00:53 Calm 10 Clear CLR 60 54     80%     29.92 29.91      
Jun 08 15:53 3 10 Partly Cloudy SCT047 74 53     48%   73 29.95 29.94      
Jun 08 14:53 Calm 10 Cloudy OVC060 71 52     51%   70 29.97 29.96      
Jun 06 09:53 ENE 8 10 Clear CLR 68 57     68%     29.93 29.92      
Jun 05 20:07 SSW 7 10 Clear CLR 68 65     90%     29.77        
Notice The following observation data may not be complete
Jun 05 19:19 5 5 Thunderstorms and Rain SCT026 BKN039 OVC100   63      %     29.72   0